Regional Weather Roundup
Issued by NWS

Home | Current Version | Previous Version | Graphics & Text | Print | Product List | Glossary On
Versions: 1 2 3 4 5 6 7 8 9 10 11 12 13 14 15 16 17 18 19 20 21 22 23 24 25 26 27 28 29 30 31 32 33 34 35 36 37 38 39 40 41 42 43 44 45 46 47 48 49 50
000
ASUS43 KLMK 230202
RWRKY
KENTUCKY REGIONAL WEATHER ROUNDUP
NATIONAL WEATHER SERVICE LOUISVILLE KY
1000 PM EDT FRI MAY 22 2015

NOTE "FAIR" INDICATES FEW OR NO CLOUDS BELOW 12,000 FEET
WITH NO SIGNIFICANT WEATHER AND/OR OBSTRUCTIONS TO VISIBILITY.

KYZ001>023-026-027-061>063-070>075-230300-
WESTERN AND SOUTH CENTRAL KENTUCKY

CITY           SKY/WX    TMP DP  RH WIND       PRES   REMARKS
PADUCAH        CLOUDY    64  55  72 CALM      30.26R
HENDERSON      CLOUDY    64  55  72 CALM      30.25R
OWENSBORO      CLOUDY    66  56  70 CALM      30.27R
HOPKINSVILLE   CLOUDY    67  49  52 E3        30.26S
BOWLING GREEN  CLOUDY    64  47  53 CALM      30.28R
GLASGOW        NOT AVBL
$$

KYZ024-025-028>034-038-045-046-053-230300-
NORTH CENTRAL KENTUCKY

CITY           SKY/WX    TMP DP  RH WIND       PRES   REMARKS
LOUISVILLE/SDF MOCLDY    67  49  52 SW6       30.26R
LOUISVILLE/LOU MOCLDY    66  48  52 S3        30.26R
FORT KNOX      CLOUDY    58  51  78 CALM      30.26R
$$

KYZ035>037-039>044-047>052-055>060-089>105-230300-
NORTHEAST KENTUCKY

CITY           SKY/WX    TMP DP  RH WIND       PRES   REMARKS
LEXINGTON      PTCLDY    61  47  59 S3        30.28R
COVINGTON      MOCLDY    64  46  52 CALM      30.25R
FRANKFORT      MOCLDY    62  48  60 SW3       30.26R
$$

KYZ054-064>069-076>088-106>120-230300-
SOUTHEAST KENTUCKY

CITY           SKY/WX    TMP DP  RH WIND       PRES   REMARKS
JACKSON        PTCLDY    62  42  47 CALM      30.30R
LONDON         CLEAR     59  45  59 CALM      30.30R
SOMERSET       NOT AVBL
MIDDLESBORO    CLEAR     56  47  69 CALM      30.32R
MONTICELLO     MOCLDY    55  51  86 CALM      30.32S
$$



USA.gov is the U.S. government's official web portal to all federal, state and local government web resources and services.